Please be sure to check the latest weather conditions by clicking the link and viewing our local weather information!

Check Weather

Welcome to Lakeway Airpark (3R9)

FromTheAir

We’re a community airpark nestled within the town of Lakeway, Texas (17 miles northwest of downtown Austin).

Lakeway Airpark, Inc. was formed by Lakeway residents and interested parties to own and manage Lakeway Airpark (3R9).

The Airpark is a privately owned not for profit public use airport for residents and guests of Lakeway. No public funds are used and the airport is supported by fees and fuel sales at the airport.

Lakeway Airpark is an unmanned facility open for use from Sunrise to Sunset seven days a week. Takeoffs and landings are not permitted at night, between Sunset and Sunrise, by City Ordinance.

Quick Weather Info

Available data for KAUS from the past 2 hours
AUSTIN, TX
Metar
KAUS 200753Z 00000KT 10SM SCT044 17/12 A2980 RMK AO2 SLP080 T01670122

07:53 UTC

Wind: 0° 0kt

Visibility: 10 SM

Sky: SCT 4400 ft

Temp: 17 deg C / 62.6 deg F

Dewpoint: 12 deg C / 53.6 deg F

Pressure: 29.8 inHg

TAF
KAUS 200537Z 2006/2112 05003KT P6SM SCT060 FM201300 VRB03KT P6SM BKN025 FM201800 18011KT P6SM SCT035 FM210500 18011KT P6SM BKN030 FM210700 18012KT P6SM OVC015 PROB30 2108/2112 P6SM -SHRA OVC015